EW8148 Weather Reports


time (UTC)temp
C
wind
direction
speed
KPH
gust
KPH
rain 1hr
cm
rain 24hr
cm
rain mn
cm
humidity
%
barometer
mb
20260505032404 15 255 1.6 6.4 0.00 0.00 0.00 74 1009.8
20260505031906 15 13 1.6 6.4 0.00 0.00 0.00 73 1009.8
20260505031405 15 246 1.6 6.4 0.00 0.00 0.00 72 1009.8
20260505030904 16 296 1.6 6.4 0.00 0.00 0.00 71 1009.7
20260505030405 16 338 1.6 6.4 0.00 0.00 0.00 70 1009.6
20260505025906 16 223 1.6 8.0 0.00 0.00 0.00 70 1009.6
20260505025404 16 268 1.6 8.0 0.00 0.00 0.00 68 1009.5
20260505024904 16 292 1.6 6.4 0.00 0.00 0.00 68 1009.4
20260505024402 17 242 1.6 6.4 0.00 0.00 0.00 68 1009.4
20260505023905 17 333 1.6 6.4 0.00 0.00 0.00 67 1009.3
20260505023402 17 236 1.6 9.7 0.00 0.00 0.00 67 1009.3
20260505022902 17 309 3.2 9.7 0.00 0.00 0.00 65 1009.4
20260505022409 17 345 3.2 8.0 0.00 0.00 0.00 64 1009.1
20260505022404 17 316 3.2 8.0 0.00 0.00 0.00 65 1009.2
20260505021403 18 324 3.2 8.0 0.00 0.00 0.00 64 1009.2
20260505020902 18 210 1.6 8.0 0.00 0.00 0.00 63 1009.3
20260505020403 18 212 3.2 8.0 0.00 0.00 0.00 61 1009.1
20260505015903 19 13 1.6 8.0 0.00 0.00 0.00 61 1009.0
20260505015402 19 46 1.6 6.4 0.00 0.00 0.00 60 1008.9
20260505014901 19 323 1.6 8.0 0.00 0.00 0.00 60 1009.0
20260505014402 19 193 3.2 8.0 0.00 0.00 0.00 60 1009.0
20260505013901 19 15 3.2 8.0 0.00 0.00 0.00 59 1009.1
20260505013402 20 247 3.2 16.1 0.00 0.00 0.00 58 1009.1
20260505012901 20 326 3.2 16.1 0.00 0.00 0.00 56 1009.1
20260505012400 21 8 3.2 4.8 0.00 0.00 0.00 56 1009.0
20260505011859 21 73 3.2 6.4 0.00 0.00 0.00 56 1009.1
20260505011359 21 314 3.2 6.4 0.00 0.00 0.00 54 1009.1
20260505010857 21 1 3.2 6.4 0.00 0.00 0.00 53 1009.1
20260505010356 21 351 3.2 11.3 0.00 0.00 0.00 51 1009.1
20260505005855 22 329 3.2 11.3 0.00 0.00 0.00 50 1009.1
20260505005354 22 331 3.2 11.3 0.00 0.00 0.00 49 1009.0
20260505004854 22 238 3.2 11.3 0.00 0.00 0.00 49 1009.0
20260505004353 22 73 3.2 12.9 0.00 0.00 0.00 48 1009.1
20260505003856 23 273 3.2 12.9 0.00 0.00 0.00 48 1009.0
20260505003359 23 3 3.2 8.0 0.00 0.00 0.00 47 1009.0
20260505003354 23 252 3.2 12.9 0.00 0.00 0.00 46 1009.1
20260505002355 23 290 3.2 14.5 0.00 0.00 0.00 47 1009.0
20260505001855 23 156 3.2 14.5 0.00 0.00 0.00 46 1008.9
20260505001355 24 251 3.2 9.7 0.00 0.00 0.00 46 1009.0
20260505000853 24 354 3.2 8.0 0.00 0.00 0.00 45 1008.9
20260505000353 24 297 1.6 6.4 0.00 0.00 0.00 47 1008.9
20260504235849 24 260 3.2 11.3 0.00 0.00 0.00 47 1008.9
20260504235351 24 253 3.2 11.3 0.00 0.00 0.00 47 1008.9
20260504234850 25 252 1.6 8.0 0.00 0.00 0.00 46 1008.8
20260504234351 25 186 1.6 9.7 0.00 0.00 0.00 47 1008.8
20260504233850 24 346 1.6 9.7 0.00 0.00 0.00 48 1008.9
20260504233356 24 240 3.2 8.0 0.00 0.00 0.00 47 1009.0
20260504233350 24 340 3.2 8.0 0.00 0.00 0.00 47 1008.9
20260504232850 23 229 3.2 8.0 0.00 0.00 0.00 47 1008.9
20260504231849 24 283 3.2 8.0 0.00 0.00 0.00 47 1009.0
20260504231356 24 140 3.2 8.0 0.00 0.00 0.00 48 1009.0
20260504231350 24 219 3.2 8.0 0.00 0.00 0.00 48 1009.0
20260504230355 24 146 3.2 9.7 0.00 0.00 0.00 49 1009.3
20260504230349 24 182 3.2 6.4 0.00 0.00 0.00 49 1009.3
20260504225349 24 211 3.2 9.7 0.00 0.00 0.00 48 1009.3
20260504224856 24 281 3.2 8.0 0.00 0.00 0.00 49 1009.4
20260504224852 24 172 3.2 8.0 0.00 0.00 0.00 49 1009.4
20260504224514 24 127 3.2 8.0 0.00 0.00 0.00 50 1009.4
20260504223350 23 207 3.2 9.7 0.00 0.00 0.00 50 1009.4
20260504222849 23 276 3.2 9.7 0.00 0.00 0.00 50 1009.5
20260504222349 23 286 3.2 8.0 0.00 0.00 0.00 51 1009.5
20260504221850 23 271 4.8 9.7 0.00 0.00 0.00 50 1009.5
20260504221349 23 259 4.8 9.7 0.00 0.00 0.00 51 1009.5
20260504220851 23 226 3.2 11.3 0.00 0.00 0.00 50 1009.6
20260504220350 23 262 3.2 11.3 0.00 0.00 0.00 52 1009.7
20260504215849 23 287 3.2 6.4 0.00 0.00 0.00 51 1009.7
20260504215352 23 68 1.6 6.4 0.00 0.00 0.00 51 1009.7
20260504214851 23 262 1.6 8.0 0.00 0.00 0.00 51 1009.8
20260504214355 23 220 3.2 11.3 0.00 0.00 0.00 52 1009.7
20260504214349 23 328 3.2 11.3 0.00 0.00 0.00 52 1009.7
20260504213349 23 215 3.2 11.3 0.00 0.00 0.00 51 1009.8
20260504212845 23 278 3.2 8.0 0.00 0.00 0.00 54 1009.9
20260504212347 22 306 4.8 17.7 0.00 0.00 0.00 53 1009.9
20260504211847 22 295 4.8 17.7 0.00 0.00 0.00 52 1010.0
20260504211349 22 257 4.8 9.7 0.00 0.00 0.00 53 1010.0
20260504210850 22 113 3.2 9.7 0.00 0.00 0.00 53 1010.1
20260504210351 22 179 3.2 8.0 0.00 0.00 0.00 53 1010.2
20260504210345 22 269 3.2 12.9 0.00 0.00 0.00 54 1010.1
20260504205844 22 170 3.2 12.9 0.00 0.00 0.00 52 1010.2
20260504204846 22 289 3.2 8.0 0.00 0.00 0.00 54 1010.2
20260504204347 21 202 4.8 9.7 0.00 0.00 0.00 55 1010.2
20260504204343 22 44 3.2 9.7 0.00 0.00 0.00 56 1010.3
20260504203344 21 293 4.8 12.9 0.00 0.00 0.00 58 1010.1
20260504202845 21 169 4.8 12.9 0.00 0.00 0.00 56 1010.2
20260504202349 21 153 4.8 12.9 0.00 0.00 0.00 55 1010.2
20260504201844 21 243 3.2 11.3 0.00 0.00 0.00 57 1010.2
20260504201342 21 191 3.2 11.3 0.00 0.00 0.00 55 1010.3
20260504200840 21 155 3.2 8.0 0.00 0.00 0.00 57 1010.4
20260504200341 21 71 3.2 8.0 0.00 0.00 0.00 56 1010.3
20260504195838 21 240 3.2 11.3 0.00 0.00 0.00 56 1010.4
20260504195340 21 108 1.6 6.4 0.00 0.00 0.00 55 1010.4
20260504195335 21 293 3.2 11.3 0.00 0.00 0.00 56 1010.4
20260504194338 21 219 3.2 11.3 0.00 0.00 0.00 57 1010.3
20260504193837 20 287 3.2 11.3 0.00 0.00 0.00 59 1010.4
20260504193337 20 211 3.2 9.7 0.00 0.00 0.00 57 1010.4
20260504192833 20 276 3.2 9.7 0.00 0.00 0.00 57 1010.5
20260504192344 20 242 3.2 9.7 0.00 0.00 0.00 59 1010.6
20260504192339 20 338 1.6 6.4 0.00 0.00 0.00 59 1010.5
20260504191337 20 300 3.2 9.7 0.00 0.00 0.00 58 1010.5
20260504190835 20 23 3.2 11.3 0.00 0.00 0.00 60 1010.6
20260504190333 20 27 3.2 11.3 0.00 0.00 0.00 57 1010.6
20260504185833 20 158 3.2 9.7 0.00 0.00 0.00 60 1010.6
20260504185334 20 276 4.8 12.9 0.00 0.00 0.00 62 1010.7
20260504184840 20 165 3.2 11.3 0.00 0.00 0.00 62 1010.8
20260504184835 20 195 4.8 12.9 0.00 0.00 0.00 59 1010.7
20260504183839 18 186 6.4 12.9 0.00 0.00 0.00 61 1010.8
20260504183834 19 146 4.8 12.9 0.00 0.00 0.00 61 1010.8
20260504183456 18 121 4.8 12.9 0.00 0.00 0.00 62 1010.8
20260504182338 19 71 3.2 11.3 0.00 0.00 0.00 61 1010.8
20260504182332 19 135 3.2 9.7 0.00 0.00 0.00 60 1010.8
20260504181331 18 138 3.2 12.9 0.00 0.00 0.00 65 1010.8
20260504180831 18 98 3.2 12.9 0.00 0.00 0.00 62 1010.8
20260504180332 18 127 4.8 9.7 0.00 0.00 0.00 64 1010.8
20260504175831 18 101 4.8 11.3 0.00 0.00 0.00 63 1010.8
20260504175333 18 73 4.8 11.3 0.00 0.00 0.00 64 1010.8
20260504174830 18 257 4.8 9.7 0.00 0.00 0.00 65 1010.8
20260504174332 18 117 3.2 9.7 0.00 0.00 0.00 64 1010.7
20260504173830 17 150 4.8 12.9 0.00 0.00 0.00 65 1010.7
20260504173329 17 158 3.2 12.9 0.00 0.00 0.00 66 1010.7
20260504172827 17 308 4.8 9.7 0.00 0.00 0.00 67 1010.7
20260504172328 17 327 4.8 9.7 0.00 0.00 0.00 66 1010.7
20260504171828 17 226 3.2 9.7 0.00 0.00 0.00 66 1010.7
20260504171328 17 265 3.2 9.7 0.00 0.00 0.00 67 1010.7
20260504170828 17 122 3.2 9.7 0.00 0.00 0.00 65 1010.7
20260504170328 17 297 3.2 4.8 0.00 0.00 0.00 66 1010.7
20260504160323 15 160 3.2 9.7 0.00 0.00 0.00 69 1010.4
20260504150820 15 288 0.0 3.2 0.00 0.00 0.00 70 1009.9
20260504150320 15 25 0.0 3.2 0.00 0.00 0.00 70 1010.0
20260504141326 12 39 0.0 0.0 0.00 0.00 0.00 79 1009.7
20260504141321 13 39 0.0 0.0 0.00 0.00 0.00 79 1009.7
20260504140319 12 39 0.0 0.0 0.00 0.00 0.00 80 1009.7
20260504130820 10 39 0.0 0.0 0.00 0.00 0.00 80 1008.9
20260504130319 10 39 0.0 0.0 0.00 0.00 0.00 80 1008.9
20260504120317 11 39 0.0 0.0 0.00 0.00 0.00 78 1008.7
20260504110307 11 39 0.0 0.0 0.00 0.00 0.00 74 1008.7
20260504100258 12 39 0.0 0.0 0.00 0.00 0.00 68 1008.5
20260504081753 13 39 0.0 0.0 0.00 0.00 0.00 61 1008.4
20260504081252 13 39 0.0 0.0 0.00 0.00 0.00 61 1008.4
20260504080751 13 39 0.0 0.0 0.00 0.00 0.00 61 1008.5
20260504080253 14 39 0.0 0.0 0.00 0.00 0.00 59 1008.5
20260504070256 15 39 0.0 0.0 0.00 0.00 0.00 57 1008.6
20260504070251 15 39 0.0 0.0 0.00 0.00 0.00 58 1008.6
20260504060245 15 39 0.0 1.6 0.00 0.00 0.00 59 1008.5
20260504050739 18 39 1.6 3.2 0.00 0.00 0.00 48 1008.3
20260504050245 18 47 0.0 3.2 0.00 0.00 0.00 51 1008.3
20260504050240 18 39 0.0 3.2 0.00 0.00 0.00 49 1008.3
20260504045238 18 47 0.0 3.2 0.00 0.00 0.00 47 1008.3
20260504044737 18 27 0.0 4.8 0.00 0.00 0.00 50 1008.3
20260504044236 18 30 0.0 4.8 0.00 0.00 0.00 47 1008.3
20260504043738 18 44 0.0 1.6 0.00 0.00 0.00 49 1008.3
20260504043239 18 44 0.0 1.6 0.00 0.00 0.00 49 1008.2
20260504042737 19 44 0.0 3.2 0.00 0.00 0.00 48 1008.2
20260504042238 19 44 0.0 3.2 0.00 0.00 0.00 49 1008.2
20260504041737 20 24 1.6 8.0 0.00 0.00 0.00 47 1008.1
20260504041245 20 53 1.6 4.8 0.00 0.00 0.00 46 1008.1
20260504041238 20 21 1.6 8.0 0.00 0.00 0.00 44 1008.1
20260504040907 20 50 1.6 4.8 0.00 0.00 0.00 43 1008.1
20260504035735 19 23 0.0 1.6 0.00 0.00 0.00 48 1008.1
20260504035234 19 23 0.0 0.0 0.00 0.00 0.00 51 1008.1
20260504034735 20 22 0.0 1.6 0.00 0.00 0.00 50 1008.1
20260504034241 21 22 0.0 1.6 0.00 0.00 0.00 44 1008.0
20260504034234 20 22 0.0 1.6 0.00 0.00 0.00 50 1008.0
20260504033734 20 22 0.0 1.6 0.00 0.00 0.00 47 1008.0
20260504032734 21 23 0.0 4.8 0.00 0.00 0.00 43 1008.0